sat.trackr.live / text

‹ back to catalog

LEMUR-2-TOMATOKECHUP

NORAD 60471 · 2024-149D

PAYLOAD ACTIVE UNKNOWN

§ Identity

Operator
Country
US
Launch date
2024-08-16
Launch site
AFWTR
Launch vehicle
Mass (kg)
RCS (m²)

Purposes: earth_obs

External: N2YO · Heavens-Above · Gunter

§ Orbital elements

Epoch: 2026-09-19T12:18:42.553728Z

Period
93.64 min
Inclination
97.3743°
Eccentricity
0.0000671
Mean motion
15.37766591 rev/d
Perigee alt
452.3 km
Apogee alt
453.2 km
Semi-major
6,830.9 km
B*
2.1325e-4
RAAN
344.8885°
Arg perigee
190.6066°
Mean anomaly
169.5165°
Rev number
11,665

§ Raw data

LEMUR-2-TOMATOKECHUP1 60471U 24149D   26262.51299252  .00007829  00000+0  21325-3 0  99922 60471  97.3743 344.8885 0000671 190.6066 169.5165 15.37766591116657

JSON: /api/v1/satellites/60471 · /tle

For live sub-satellite position, see the globe view (requires WebGL).

§ Visibility from observer

Set your observer location to see the next 7 days of passes ≥ 10°. The values pass through the URL so the page stays shareable.

No JS? Fill the form by hand. The geolocation button needs JavaScript.

§ Radio — SatNOGS DB

ModeDescriptionDownlinkUplink
FM Mode U - Transmitter 402.790 MHz

1 transmitter · refreshed weekly from db.satnogs.org